St. Petersburg Airport, FL

10:36 PM EDT on June 23, 2017 (GMT -0400)
Saint Petersburg-Clearwater International

Weather History for KPIE - September, 2013

Change the Weather History Date:

Thursday, September 19, 2013

  Actual Average Record
Temperature  
Mean Temperature 82 °F -  
Max Temperature 89 °F 89 °F 94 °F (1972)
Min Temperature 75 °F 75 °F 61 °F (1981)
Cooling Degree Days 16    
Growing Degree Days 32 (Base 50)    
Moisture  
Dew Point 73 °F    
Average Humidity 82    
Maximum Humidity 94    
Minimum Humidity 59    
Precipitation  
Precipitation 0.61 in - - ()
Sea Level Pressure  
Sea Level Pressure 30.01 in    
Wind  
Wind Speed 8 mph (East)    
Max Wind Speed 14 mph    
Max Gust Speed 20 mph    
Visibility 10 miles    
Events Rain , Thunderstorm    
Averages and records for this station are not official NWS values.
T = Trace of Precipitation, MM = Missing Value Source: NWS Daily Summary

Daily Weather History Graph

Daily Weather History Graph

Search for Another Location

Airport or City:

Trip Planner

Search our weather history database for the weather conditions in past years. The results will help you decide how hot, cold, wet, or windy it might be!

Date:

Astronomy

Sep. 19, 2013 Rise Set
Actual Time 7:17 AM EDT 7:30 PM EDT
Civil Twilight 6:54 AM EDT 7:53 PM EDT
Nautical Twilight 6:27 AM EDT 8:21 PM EDT
Astronomical Twilight 5:59 AM EDT 8:48 PM EDT
Moon 7:35 PM EDT (9/19) 7:21 AM EDT (9/19)
Length of Visible Light 12h 59m
Length of Day
12h 12m
Full, 100% of the Moon is Illuminated
Sep 19
Full
Sep 26
Last Quarter
Oct 4
New
Oct 11
First Quarter
Oct 18
Full

Hourly Weather History & Observations

Time (EDT) Temp. Heat Index Dew Point Humidity Pressure Visibility Wind Dir Wind Speed Gust Speed Precip Events Conditions
12:53 AM 78.1 °F - 73.0 °F 84% 30.03 in 10.0 mi ENE 10.4 mph - N/A   Partly Cloudy
1:53 AM 77.0 °F - 72.0 °F 84% 30.01 in 10.0 mi NE 9.2 mph - N/A   Clear
2:53 AM 75.9 °F - 73.0 °F 91% 30.01 in 10.0 mi ENE 8.1 mph - N/A   Clear
3:53 AM 75.9 °F - 73.0 °F 91% 29.99 in 10.0 mi ENE 9.2 mph - N/A   Clear
4:53 AM 75.9 °F - 73.0 °F 91% 29.98 in 10.0 mi ENE 10.4 mph 17.3 mph N/A   Clear
5:53 AM 75.9 °F - 73.0 °F 91% 29.99 in 10.0 mi ENE 9.2 mph - N/A   Clear
6:53 AM 77.0 °F - 73.0 °F 88% 30.00 in 10.0 mi ENE 10.4 mph - N/A   Clear
7:53 AM 77.0 °F - 73.0 °F 88% 30.01 in 10.0 mi East 10.4 mph - N/A   Clear
8:53 AM 78.1 °F - 73.9 °F 87% 30.02 in 10.0 mi East 10.4 mph - N/A   Clear
9:53 AM 79.0 °F - 73.9 °F 84% 30.04 in 10.0 mi East 6.9 mph - N/A   Partly Cloudy
10:53 AM 81.0 °F 86.2 °F 73.9 °F 79% 30.06 in 10.0 mi East 8.1 mph - N/A   Partly Cloudy
11:53 AM 82.9 °F 89.4 °F 73.9 °F 74% 30.06 in 10.0 mi ENE 9.2 mph - N/A   Scattered Clouds
12:53 PM 84.9 °F 92.1 °F 73.9 °F 69% 30.05 in 10.0 mi ESE 8.1 mph - N/A   Scattered Clouds
1:53 PM 87.1 °F 94.5 °F 73.0 °F 63% 30.02 in 10.0 mi ENE 8.1 mph - N/A   Scattered Clouds
2:53 PM 88.0 °F 95.6 °F 73.0 °F 61% 29.99 in 10.0 mi ENE 5.8 mph - N/A   Scattered Clouds
3:53 PM 88.0 °F 94.7 °F 72.0 °F 59% 29.97 in 10.0 mi North 3.5 mph - N/A   Clear
4:21 PM 87.8 °F 95.6 °F 73.4 °F 62% 29.98 in 10.0 mi NE 6.9 mph - N/A Thunderstorm Partly Cloudy
4:36 PM 84.2 °F 90.9 °F 73.4 °F 70% 29.98 in 10.0 mi SE 8.1 mph - N/A   Mostly Cloudy
4:50 PM 84.2 °F 90.9 °F 73.4 °F 70% 29.98 in 10.0 mi SE 4.6 mph - N/A Thunderstorm Mostly Cloudy
4:53 PM 84.9 °F 91.4 °F 73.0 °F 67% 29.98 in 10.0 mi SSE 4.6 mph - N/A Thunderstorm Scattered Clouds
5:05 PM 86.0 °F 93.4 °F 73.4 °F 66% 29.98 in 10.0 mi South 6.9 mph - N/A   Scattered Clouds
5:16 PM 84.2 °F 89.6 °F 71.6 °F 66% 29.98 in 10.0 mi Calm Calm - N/A Thunderstorm Thunderstorm
5:35 PM 86.0 °F 91.8 °F 71.6 °F 62% 29.99 in 10.0 mi Calm Calm - N/A   Scattered Clouds
5:53 PM 82.9 °F 88.8 °F 73.0 °F 72% 29.99 in 10.0 mi South 8.1 mph - N/A   Overcast
6:20 PM 80.6 °F 85.4 °F 73.4 °F 79% 29.98 in 10.0 mi SSW 4.6 mph - 0.06 in Rain , Thunderstorm Light Thunderstorms and Rain
6:53 PM 77.0 °F - 75.0 °F 94% 30.01 in 10.0 mi WNW 9.2 mph - 0.24 in Rain , Thunderstorm Heavy Thunderstorms and Rain
7:44 PM 77.0 °F - 73.4 °F 89% 30.00 in 10.0 mi SW 5.8 mph - 0.05 in   Mostly Cloudy
7:53 PM 77.0 °F - 73.9 °F 90% 30.00 in 10.0 mi SW 5.8 mph - 0.05 in   Mostly Cloudy
8:37 PM 77.0 °F - 73.4 °F 89% 30.01 in 10.0 mi WSW 4.6 mph - N/A Thunderstorm Scattered Clouds
8:53 PM 77.0 °F - 73.9 °F 90% 30.01 in 10.0 mi NW 4.6 mph - N/A   Scattered Clouds
9:14 PM 78.8 °F - 73.4 °F 83% 30.03 in 10.0 mi NNE 13.8 mph - N/A Thunderstorm Overcast
9:22 PM 77.0 °F - 73.4 °F 89% 30.03 in 10.0 mi East 13.8 mph 17.3 mph N/A Thunderstorm Mostly Cloudy
9:41 PM 75.2 °F - 71.6 °F 89% 30.04 in 10.0 mi East 10.4 mph 19.6 mph 0.30 in Rain , Thunderstorm Heavy Rain
9:53 PM 75.0 °F - 73.0 °F 94% 30.04 in 10.0 mi ESE 9.2 mph - 0.31 in Rain , Thunderstorm Light Rain
10:03 PM 75.2 °F - 73.4 °F 94% 30.04 in 10.0 mi SE 6.9 mph - 0.00 in Rain , Thunderstorm Light Rain
10:24 PM 75.2 °F - 73.4 °F 94% 30.04 in 10.0 mi SE 8.1 mph - 0.01 in Rain , Thunderstorm Light Rain
10:37 PM 75.2 °F - 73.4 °F 94% 30.04 in 10.0 mi SSE 9.2 mph - 0.01 in Thunderstorm Overcast
10:44 PM 75.2 °F - 73.4 °F 94% 30.03 in 10.0 mi SE 8.1 mph - 0.01 in   Overcast
10:53 PM 75.9 °F - 73.9 °F 94% 30.03 in 10.0 mi SE 5.8 mph - 0.01 in   Overcast
11:53 PM 78.1 °F - 73.9 °F 87% 30.04 in 10.0 mi ESE 8.1 mph - N/A   Overcast